Regional Weather Roundup
Issued by NWS

Home | Current Version | Previous Version | Text Only | Print | Product List | Glossary Off
Versions: 1 2 3 4 5 6 7 8 9 10 11 12 13 14 15 16 17 18 19 20 21 22 23 24 25 26 27 28 29 30 31 32 33 34 35 36 37 38 39 40 41 42 43 44 45 46 47 48 49 50

000
ASUS43 KLSX 021507
RWRMO

WEATHER SUMMARY FOR MISSOURI
NATIONAL WEATHER SERVICE SPRINGFIELD MO
1000 AM CDT WED SEP 02 2015

NOTE: "FAIR" INDICATES FEW OR NO CLOUDS BELOW 12,000 FEET WITH NO
       SIGNIFICANT WEATHER AND/OR OBSTRUCTIONS TO VISIBILITY.
       CURRENT SKY AND/OR WEATHER CONDITIONS ARE NOT AVAILABLE FOR
       CHILLICOTHE AND FARMINGTON.

MOZ001>031-035>038-043-044-053-054-021600-
...NORTHERN AND WESTERN MISSOURI...

CITY           SKY/WX    TMP DP  RH WIND       PRES   REMARKS
KANSAS CTY INT RAIN      71  68  90 E9        30.08S FOG
KANSAS C DTWN  CLOUDY    76  67  73 E6        30.08R
LEE`S SUMMIT   CLOUDY    75  67  76 VRB3      30.10R
ST JOSEPH      LGT RAIN  71  69  93 SE12      30.03F
CHILLICOTHE      N/A     71  69  93 CALM      30.11R
KIRKSVILLE     CLOUDY    73  68  84 SW5       30.11R

$$
MOZ066>068-077>081-088>096-101>105-021600-
...SOUTHWEST MISSOURI...

CITY           SKY/WX    TMP DP  RH WIND       PRES   REMARKS
SPRINGFIELD    SUNNY     78  68  71 S8        30.12R
JOPLIN         SUNNY     80  69  69 S13       30.09S

$$
MOZ032>034-039>042-045>050-055>058-069>072-021600-
...CENTRAL MISSOURI...

CITY           SKY/WX    TMP DP  RH WIND       PRES   REMARKS
COLUMBIA       MOSUNNY   78  69  73 SW9       30.11S
JEFFERSON CITY SUNNY     81  68  64 CALM      30.10S
ROLLA          SUNNY     81  68  64 SW10      30.12S
SEDALIA        MOSUNNY   81  69  67 SW12      30.11S
WARRENSBURG    MOSUNNY   77  68  73 S5        30.09R
OSAGE BEACH    SUNNY     82  68  61 S8        30.12R

$$
MOZ051-052-059>065-021600-
...EAST CENTRAL MISSOURI...

CITY           SKY/WX    TMP DP  RH WIND       PRES   REMARKS
ST LOUIS INTL  MOSUNNY   85  69  58 VRB5      30.11S
SPIRIT OF STL  MOSUNNY   83  72  69 SW6       30.09S
ST CHARLES     SUNNY     82  72  71 VRB5      30.10S

$$
MOZ072>076-082>087-097>100-106>115-021600-
...SOUTH CENTRAL AND SOUTHEAST MISSOURI...

CITY           SKY/WX    TMP DP  RH WIND       PRES   REMARKS
CAPE GIRARDEAU SUNNY     83  72  69 CALM      30.12F
FARMINGTON     SUNNY     79  72  78 SW6       30.16S
POPLAR BLUFF   SUNNY     80  72  76 SE3       30.11F
WEST PLAINS    SUNNY     81  67  62 S6        30.16R

$$



USA.gov is the U.S. government's official web portal to all federal, state and local government web resources and services.